Terminal Aerodrome Forecast
Issued by NWS Blacksburg, VA

Home | Current Version | Previous Version | Text Only | Print | Product List | Glossary On
Versions: 1 2 3 4 5 6 7 8 9 10 11 12 13 14 15 16 17 18 19 20 21 22 23 24 25 26 27 28 29 30 31 32 33 34
000
FTUS41 KRNK 251722
TAFLYH
TAF
KLYH 251722Z 2518/2618 22007KT P6SM BKN250
     FM252300 16004KT P6SM OVC100
     FM260300 14004KT P6SM OVC020
     FM260700 08003KT 5SM -RA BR OVC025
     FM261200 04003KT 2SM -RA BR BKN007 OVC012=

USA.gov is the U.S. government's official web portal to all federal, state and local government web resources and services.